SLCO2: Lee Creek At Short, OK

                                SHEF ID:       SLCO2     Lee Creek near Short, OK
STATION TYPE: Stream Gauge

PRECIP STAGE RIV-FLOW BAT-LOAD
in ft cfs volt
Ccp-Rev Ccp-Rev Ccp-Rev Ccp-Rev
(America/Chicago)
04/25 00:00 0.00 4.81 681 12.60
04/25 01:00 0.00 4.76 654 12.60
04/25 02:00 0.00 4.68 705 12.61
04/25 03:00 0.00 4.61 668 12.60
04/25 04:00 0.00 4.55 637 12.60
04/25 05:00 0.00 4.49 607 12.59
04/25 06:00 0.00 4.44 582 12.60
04/25 07:00 0.00 4.39 558 12.59
04/25 08:00 0.00 4.34 535 12.60
04/25 09:00 0.00 4.31 521 12.63
04/25 10:00 0.00 4.26 500 12.67
04/25 11:00 0.00 4.23 488 12.76
04/25 12:00 0.00 4.19 471 13.10
04/25 13:00 0.00 4.15 455 13.24
04/25 14:00 0.00 4.13 448 13.67
04/25 15:00 0.00 4.09 432 13.27
04/25 16:00 0.00 4.07 425 13.18
04/25 17:00 0.00 4.03 410 13.10
04/25 18:00 0.00 4.01 403 13.07
04/25 19:00 0.00 3.99 395 12.90
04/25 20:00 0.00 3.95 381 12.85
04/25 21:00 0.00 3.93 374 12.83
04/25 22:00 0.00 3.90 364 12.80
04/25 23:00 0.37 3.90 364 12.80
Data processed at Sun 26Apr2026 04:41 GMT

NOTICE: If you are parsing this page

Please convert to using our Data API. Starting early 2026 we will be migrating to: https://water.usace.army.mil with modern pages rendered in JavaScript. When this migration completes you will no longer be able to scrape this page! CWMSDataAPI (CDA)

Timeseries IDs (TSIDs)

TSIDs used from left to right in the data table
SHOR.Precip-Inc.Total.1Hour.1Hour.Ccp-Rev
SHOR.Stage.Inst.1Hour.0.Ccp-Rev
SHOR.Flow.Inst.1Hour.0.Ccp-Rev
SHOR.Volt-Battery Load.Inst.1Hour.0.Ccp-Rev

                            

All information presented herein is the property of the government of the United States of America and may be revised or deleted at any time without prior notice. Dissemination of this information without the expressed written consent of the Public Affairs Office, Tulsa District U.S. Army Corps of Engineers is strictly prohibited. These data are gathered electronically and, as presented, have NOT undergone any form of quality control. These data are NOT guaranteed to be valid or correct.